Bucharest, Romania

7:20 AM EET on January 23, 2017 (GMT +0200)
Bucharest

Weather History for 15420 - February, 2010

Change the Weather History Date:

Saturday, February 27, 2010

  Actual Average Record
Temperature  
Mean Temperature 37 °F -  
Max Temperature 41 °F 50 °F - ()
Min Temperature 33 °F 32 °F - ()
Degree Days  
Heating Degree Days 28    
Moisture  
Dew Point 37 °F    
Average Humidity 98    
Maximum Humidity 100    
Minimum Humidity 93    
Precipitation  
Precipitation 0.08 in 0.05 in - ()
Sea Level Pressure  
Sea Level Pressure 29.70 in    
Wind  
Wind Speed 8 mph ()    
Max Wind Speed 14 mph    
Max Gust Speed -    
Visibility 1.7 miles    
Events Fog , Rain    
T = Trace of Precipitation, MM = Missing Value Source: Averaged Metar Reports

Daily Weather History Graph

Daily Weather History Graph

Search for Another Location

Airport or City:

Trip Planner

Search our weather history database for the weather conditions in past years. The results will help you decide how hot, cold, wet, or windy it might be!

Date:

Astronomy

Feb. 27, 2010 Rise Set
Actual Time 6:57 AM EET 6:00 PM EET
Civil Twilight 6:27 AM EET 6:29 PM EET
Nautical Twilight 5:54 AM EET 7:03 PM EET
Astronomical Twilight 5:20 AM EET 7:37 PM EET
Moon 4:44 PM EET (2/27) 5:55 AM EET (2/27)
Length of Visible Light 12h 02m
Length of Day
11h 03m
Waxing Gibbous, 98% of the Moon is Illuminated
Feb 27
Waxing Gibbous
Feb 28
Full
Mar 7
Last Quarter
Mar 15
New
Mar 23
First Quarter

Hourly Weather History & Observations

Time (EET) Temp. Windchill Dew Point Humidity Pressure Visibility Wind Dir Wind Speed Gust Speed Precip Events Conditions
12:00 AM 38 °F - 38 °F 99% 29.73 in 6 mi ENE 4.5 mph - -   Scattered Clouds
12:00 AM 37.4 °F 32.8 °F 35.6 °F 93% 29.71 in 1.9 mi East 5.8 mph - N/A   Mist
12:30 AM 37.4 °F 32.8 °F 37.4 °F 100% 29.71 in 0.9 mi East 5.8 mph - N/A   Mist
1:00 AM 37.4 °F 31.4 °F 35.6 °F 93% 29.68 in 0.9 mi East 8.1 mph - N/A   Scattered Clouds
1:30 AM 35.6 °F 28.0 °F 35.6 °F 100% 29.68 in 0.6 mi East 10.4 mph - N/A Fog Fog
2:00 AM 36 °F - 36 °F 98% 29.72 in 1 mi ENE 6.7 mph - -   Mist
2:00 AM 35.6 °F 28.0 °F 35.6 °F 100% 29.68 in 0.2 mi East 10.4 mph - N/A Fog Fog
2:30 AM 35.6 °F 27.5 °F 35.6 °F 100% 29.68 in 0.6 mi East 11.5 mph - N/A   Mist
3:00 AM 35 °F - 35 °F 97% 29.69 in 2 mi ENE 8.9 mph - -   Mist
3:00 AM 35.6 °F 27.1 °F 33.8 °F 93% 29.68 in 0.9 mi East 12.7 mph - N/A   Mostly Cloudy
3:30 AM 33.8 °F 25.8 °F 33.8 °F 100% 29.68 in 0.9 mi East 10.4 mph - N/A   Mostly Cloudy
4:00 AM 33 °F - 33 °F 100% 29.68 in 6 mi NE 8.9 mph - -   Overcast
4:00 AM 33.8 °F 25.3 °F 33.8 °F 100% 29.65 in 0.9 mi East 11.5 mph - N/A   Mostly Cloudy
4:30 AM 33.8 °F 24.8 °F 33.8 °F 100% 29.65 in 1.2 mi East 12.7 mph - N/A   Overcast
5:00 AM 34 °F - 34 °F 99% 29.68 in 6 mi ENE 8.9 mph - -   Overcast
5:00 AM 33.8 °F 24.3 °F 33.8 °F 100% 29.65 in 1.2 mi East 13.8 mph - N/A   Overcast
5:30 AM 33.8 °F 24.8 °F 33.8 °F 100% 29.65 in 2.5 mi East 12.7 mph - N/A   Overcast
6:00 AM 34 °F - 34 °F 100% 29.67 in 6 mi ENE 8.9 mph - -   Overcast
6:00 AM 35.6 °F 27.5 °F 33.8 °F 93% 29.65 in 3.1 mi East 11.5 mph - N/A   Overcast
6:30 AM 35.6 °F 26.6 °F 33.8 °F 93% 29.65 in 3.1 mi East 13.8 mph - N/A   Overcast
7:00 AM 34 °F - 34 °F 99% 29.67 in 6 mi ENE 8.9 mph - -   Overcast
7:00 AM 35.6 °F 27.5 °F 33.8 °F 93% 29.65 in 1.9 mi East 11.5 mph - N/A   Overcast
7:30 AM 35.6 °F 27.1 °F 35.6 °F 100% 29.65 in 1.9 mi East 12.7 mph - N/A   Overcast
8:00 AM 35 °F - 34 °F 96% 29.67 in 2 mi ENE 11.2 mph - -   Mist
8:00 AM 35.6 °F 27.1 °F 35.6 °F 100% 29.65 in 1.9 mi East 12.7 mph - N/A   Overcast
8:30 AM 35.6 °F 27.1 °F 35.6 °F 100% 29.65 in 1.6 mi ENE 12.7 mph - N/A   Overcast
9:00 AM 35 °F - 34 °F 96% 29.68 in - NE 8.9 mph - -  
9:00 AM 35.6 °F 27.1 °F 35.6 °F 100% 29.65 in 1.2 mi ENE 12.7 mph - N/A Rain Light Rain
9:30 AM 35.6 °F 27.1 °F 35.6 °F 100% 29.65 in 1.1 mi East 12.7 mph - N/A   Light Drizzle
10:00 AM 35 °F - 35 °F 99% 29.68 in - NE 8.9 mph - -  
10:00 AM 35.6 °F 27.1 °F 35.6 °F 100% 29.65 in 0.6 mi ENE 12.7 mph - N/A Rain Light Rain
10:30 AM 37.4 °F 29.3 °F 35.6 °F 93% 29.65 in 0.8 mi East 12.7 mph - N/A Rain Light Rain
11:00 AM 36 °F - 36 °F 100% 29.68 in - ENE 8.9 mph - -  
11:00 AM 37.4 °F 29.3 °F 37.4 °F 100% 29.65 in 1.2 mi ENE 12.7 mph - N/A Rain Light Rain
11:30 AM 37.4 °F 29.8 °F 37.4 °F 100% 29.65 in 1.6 mi ENE 11.5 mph - N/A Rain Light Rain
12:00 PM 38 °F - 38 °F 99% 29.68 in - NE 6.7 mph - -  
12:00 PM 39.2 °F 32.0 °F 39.2 °F 100% 29.65 in 1.6 mi ENE 11.5 mph - N/A Rain Light Rain
12:30 PM 39.2 °F 32.0 °F 39.2 °F 100% 29.65 in 1.6 mi ENE 11.5 mph - N/A Rain Light Rain
1:00 PM 38 °F - 38 °F 100% 29.68 in 2 mi NE 8.9 mph - - Rain Light Rain
1:00 PM 39.2 °F 32.0 °F 39.2 °F 100% 29.65 in 1.2 mi ENE 11.5 mph - N/A Rain Light Rain
1:30 PM 39.2 °F 32.0 °F 39.2 °F 100% 29.65 in 1.9 mi ENE 11.5 mph - N/A Rain Light Rain
2:00 PM 38 °F - 38 °F 100% 29.68 in 1 mi NE 6.7 mph - - Rain Light Rain
2:00 PM 39.2 °F 32.5 °F 39.2 °F 100% 29.65 in 1.9 mi ENE 10.4 mph - N/A Rain Light Rain
2:30 PM 39.2 °F 32.5 °F 39.2 °F 100% 29.65 in 1.6 mi ENE 10.4 mph - N/A Rain Light Rain
3:00 PM 39 °F - 39 °F 99% 29.68 in 1 mi NE 6.7 mph - - Rain Light Rain
3:00 PM 39.2 °F 32.5 °F 39.2 °F 100% 29.65 in 1.6 mi ENE 10.4 mph - N/A Rain Light Rain
3:30 PM 39.2 °F 33.0 °F 39.2 °F 100% 29.68 in 1.6 mi ENE 9.2 mph - N/A Rain Light Rain
4:00 PM 39 °F - 39 °F 99% 29.70 in 1 mi NNE 6.7 mph - - Rain Light Rain
4:00 PM 39.2 °F 34.2 °F 39.2 °F 100% 29.68 in 1.2 mi ENE 6.9 mph - N/A Rain Light Rain
4:30 PM 41.0 °F 36.4 °F 39.2 °F 93% 29.68 in 1.2 mi NE 6.9 mph - N/A Rain Light Rain
5:00 PM 39 °F - 39 °F 100% 29.71 in 1 mi NNE 4.5 mph - - Rain Light Rain
5:00 PM 41.0 °F 36.4 °F 39.2 °F 93% 29.71 in 1.1 mi NE 6.9 mph - N/A   Light Drizzle
5:30 PM 41.0 °F 36.4 °F 39.2 °F 93% 29.71 in 1.1 mi NE 6.9 mph - N/A   Light Drizzle
6:00 PM 40 °F - 40 °F 98% 29.73 in 1 mi NNE 6.7 mph - - Rain Light Rain
6:00 PM 41.0 °F 37.1 °F 39.2 °F 93% 29.71 in 1.1 mi NE 5.8 mph - N/A   Light Drizzle
6:30 PM 41.0 °F 37.1 °F 41.0 °F 100% 29.74 in 1.1 mi NE 5.8 mph - N/A   Light Drizzle
7:00 PM 40 °F - 40 °F 100% 29.77 in 1 mi NNE 4.5 mph - - Rain Light Rain
7:00 PM 41.0 °F 37.1 °F 41.0 °F 100% 29.74 in 0.9 mi NE 5.8 mph - N/A   Light Drizzle
7:30 PM 41.0 °F 36.4 °F 41.0 °F 100% 29.77 in 0.9 mi NE 6.9 mph - N/A   Light Drizzle
8:00 PM 40 °F - 40 °F 100% 29.79 in 2 mi NNE 6.7 mph - - Rain Light Rain
8:00 PM 41.0 °F 36.4 °F 41.0 °F 100% 29.77 in 0.7 mi NE 6.9 mph - N/A   Light Drizzle
8:30 PM 41.0 °F 36.4 °F 41.0 °F 100% 29.77 in 0.7 mi ENE 6.9 mph - N/A   Drizzle
9:00 PM 41 °F - 41 °F 99% 29.81 in 2 mi NNE 4.5 mph - - Rain Light Rain
9:00 PM 41.0 °F 35.8 °F 41.0 °F 100% 29.80 in 0.9 mi ENE 8.1 mph - N/A   Drizzle
9:30 PM 41.0 °F 35.8 °F 41.0 °F 100% 29.80 in 0.9 mi ENE 8.1 mph - N/A   Drizzle
10:00 PM 40 °F - 40 °F 100% 29.82 in 2 mi NE 6.7 mph - - Rain Light Rain
10:00 PM 41.0 °F 35.2 °F 41.0 °F 100% 29.80 in 0.9 mi ENE 9.2 mph - N/A   Light Drizzle
10:30 PM 41.0 °F 35.8 °F 41.0 °F 100% 29.83 in 1.1 mi ENE 8.1 mph - N/A   Light Drizzle
11:00 PM 40 °F - 40 °F 100% 29.84 in 2 mi NE 6.7 mph - - Rain Light Rain
11:00 PM 41.0 °F 35.2 °F 41.0 °F 100% 29.83 in 1.2 mi ENE 9.2 mph - N/A   Light Drizzle
11:30 PM 41.0 °F 35.8 °F 39.2 °F 93% 29.83 in 1.2 mi ENE 8.1 mph - N/A   Light Drizzle